www.pogodaiklimat.ru

Погода и климат >> Архив погоды >> Оман >> Khasab


ПОГОДА в Khasab

  • Прогноз погоды в Khasab
  • Монитор погоды в Khasab
  • Климат города

АРХИВ ПОГОДЫ в Khasab

Время (UTC), дата Ветер
(напр.,м/с)
 
Видим.   Явления Облачность Т
(С)
Тd
(С)
f
(%)
Тe
(С)
Тes
(С)
Комфортность P
(гПа)
Po
(гПа)
Тmin
(С)
Tmax
(С)
R
(мм)
R24
(мм)
S
(см)
00 14.05 ЮЗ 4 н/о н/о +31.1 +22.4 60 +40 +40 очень
душно
1003.0 1001.6
03 14.05 СЗ 1 н/о н/о +32.8 +9.4 24 +32 +32 жарко 1004.8 1003.4
06 14.05 ЮЗ 3 н/о н/о +38.3 -1.0 8 +34 +34 очень
жарко
1006.3 1004.9 +30.6
09 14.05 ЮЗ 5 н/о н/о +38.2 -2.2 8 +34 +34 очень
жарко
1006.1 1004.8
12 14.05 ЮЗ 5 н/о н/о +39.2 -7.8 5 +35 +35 очень
жарко
1004.3 1002.9
15 14.05 Ю 7 н/о н/о +36.1 -5.1 7 +32 +32 жарко 1004.2 1002.8
18 14.05 СЗ 2 н/о н/о +35.6 -1.2 10 +32 +32 жарко 1005.3 1003.9 +39.9
21 14.05 СВ 2 н/о н/о +31.7 -1.1 12 +32 +32 жарко 1004.6 1003.2
00 15.05 Ю 3 н/о н/о +35.2 -1.6 10 +31 +31 жарко 1004.3 1002.9
03 15.05 Ю 3 н/о н/о +36.1 +0.3 10 +32 +32 жарко 1006.0 1004.7
06 15.05 СВ 4 н/о н/о +31.8 +12.2 30 +39 +39 очень
душно
1007.1 1005.7 +31.7
09 15.05 С 2 н/о н/о +31.8 +22.6 58 +41 +41 опасность
перегрева
1006.5 1005.2
12 15.05 СВ 4 н/о н/о +33.2 +20.1 46 +39 +39 очень
душно
1004.6 1003.2
15 15.05 Ю 6 н/о н/о +35.4 +3.3 13 +32 +32 жарко 1004.8 1003.4
18 15.05 З 5 н/о н/о +36.5 +0.3 10 +33 +33 жарко 1005.7 1004.4 +37.5
21 15.05 ЮЗ 4 н/о н/о +36.6 +1.9 11 +33 +33 жарко 1004.7 1003.3
00 16.05 Ю 4 н/о н/о +35.8 +2.4 12 +32 +32 жарко 1003.9 1002.5
03 16.05 Ю 4 н/о н/о +33.0 +6.0 19 +31 +31 жарко 1006.8 1005.4
06 16.05 Ю 8 н/о н/о +35.1 +5.3 16 +33 +33 жарко 1007.0 1005.6 +32.5
09 16.05 Ю 4 н/о н/о +38.2 +1.0 10 +35 +35 очень
жарко
1006.0 1004.6
12 16.05 ЮЗ 4 н/о н/о +36.4 +3.8 13 +33 +33 жарко 1004.9 1003.6
15 16.05 ЮЗ 5 н/о н/о +36.5 -3.1 8 +32 +32 жарко 1004.1 1002.8
18 16.05 ЮЗ 8 н/о н/о +34.3 0.0 11 +31 +31 жарко 1005.4 1004.1 +38.7
21 16.05 ЮЗ 6 н/о н/о +35.2 -2.1 9 +31 +31 жарко 1005.4 1004.1
00 17.05 Ю 6 н/о н/о +35.0 +0.8 12 +32 +32 жарко 1005.5 1004.1
03 17.05 Ю 4 н/о н/о +34.0 +2.3 14 +31 +31 жарко 1006.8 1005.4
06 17.05 З 6 н/о н/о +34.3 +3.9 15 +32 +32 жарко 1008.1 1006.7 +32.9
09 17.05 З 5 н/о н/о +34.6 +2.1 13 +34 +34 очень
жарко
1007.3 1005.9
12 17.05 СВ 2 н/о н/о +36.3 +0.8 11 +33 +33 жарко 1005.5 1004.2
15 17.05 ЮЗ 10 н/о н/о +33.8 +3.8 15 +31 +31 жарко 1005.5 1004.1
18 17.05 ЮЗ 6 н/о н/о +33.8 +4.4 16 +31 +31 жарко 1007.2 1005.8 +38.3
21 17.05 Ю 5 н/о н/о +34.2 +5.0 16 +32 +32 жарко 1005.7 1004.4
00 18.05 ЮЗ 5 н/о н/о +32.8 +4.8 17 +30 +30 жарко 1005.7 1004.3
03 18.05 ЮЗ 5 н/о н/о +33.4 -1.5 11 +30 +30 жарко 1006.6 1005.2
06 18.05 Ю 7 н/о н/о +31.5 -0.9 12 +32 +32 жарко 1008.0 1006.6 +31.4
09 18.05 З 6 н/о н/о +34.9 +2.8 13 +32 +32 жарко 1007.1 1005.7
12 18.05 З 6 н/о н/о +35.0 +5.8 16 +32 +32 жарко 1005.4 1004.1
15 18.05 ЮЗ 2 н/о н/о +34.8 +5.6 16 +32 +32 жарко 1005.7 1004.3
18 18.05 ЮЗ 4 н/о н/о +32.8 +10.8 26 +32 +32 жарко 1006.4 1005.0 +37.1
21 18.05 штиль 0 н/о н/о +31.3 +14.3 36 +33 +33 жарко 1006.7 1005.3
00 19.05 СВ 2 н/о н/о +28.8 +20.4 60 +35 +35 очень
душно
1007.4 1006.0
03 19.05 С 1 н/о н/о +29.2 +19.6 56 +35 +35 очень
душно
1008.8 1007.4
06 19.05 С 2 н/о н/о +30.3 +17.9 47 +35 +35 очень
душно
1010.0 1008.6 +28.2
09 19.05 С 2 н/о н/о +30.1 +18.4 50 +35 +35 очень
душно
1008.9 1007.5
12 19.05 С 2 н/о н/о +30.3 +18.8 50 +35 +35 очень
душно
1006.9 1005.6
15 19.05 СВ 2 н/о н/о +30.6 +21.2 57 +38 +38 очень
душно
1006.4 1005.1
18 19.05 штиль 0 н/о н/о +30.1 +20.4 56 +37 +37 очень
душно
1007.2 1005.8 +31.9
21 19.05 В 2 н/о н/о +29.0 +21.5 64 +37 +37 очень
душно
1007.8 1006.5
00 20.05 нст 1 н/о н/о +29.1 +16.0 45 +32 +32 душно 1007.4 1006.0
03 20.05 ЮВ 3 н/о н/о +29.5 +18.0 50 +34 +34 очень
душно
1009.1 1007.7
06 20.05 СЗ 2 н/о н/о +29.1 +23.1 70 +39 +39 очень
душно
1010.1 1008.7 +28.2
09 20.05 С 3 н/о н/о +30.2 +22.9 65 +40 +40 очень
душно
1008.9 1007.5
12 20.05 С 3 н/о н/о +30.9 +24.5 69 +44 +44 опасность
перегрева
1007.4 1006.0
15 20.05 С 1 н/о н/о +29.6 +23.0 68 +40 +40 очень
душно
1007.1 1005.8
18 20.05 СВ 2 н/о н/о +28.9 +24.2 76 +40 +40 очень
душно
1008.3 1006.9 +31.4

 

Местоположение метеостанции Khasab (Оман): широта 26.21 долгота 56.24 высота над уровнем моря 4 м.

В архиве по умолчанию представлена погода в Khasab за последнюю неделю. Архивные данные за месяц целиком и за предыдущие месяцы, начиная с января 2011 года, Вы можете получить, выбрав интересующий диапазон дат из раскрывающегося списка и нажав кнопку "Ввод!".


*Определитесь, кто Вы:
робот инопланетянин человек

Внимание! Время в таблицах - всемирное. Для получения местного времени необходимо прибавить поправку, которая в Khasab равна 4 ч.

Смотрите также архив погоды в соседних городах и на ближайших метеорологических станциях:

Погода в Khasab Airport (Оман) (5 км)
Погода в Diba (Оман) (66 км)
Погода в Ras Al Khaimah Int Airport (ОАЭ) (73 км)
Погода в Bandarabbass (Иран) (113 км)
Погода в Sharjah (ОАЭ) (122 км)
Погода в Fujairah (ОАЭ) (124 км)
Погода в Dubai (ОАЭ) (140 км)
Погода в Bandar Lengeh (Иран) (146 км)
Погода в Abu Musa Island (Иран) (147 км)
Погода в Jask (Иран) (166 км)

Пояснения к столбцам:

Ветер - указаны скорость ветра в м/с - средняя за 10 мин, порывы в срок и между сроками (в фигурных скобках) и направление, откуда дует ветер: С - северный, СВ - северо-восточный, В - восточный, ЮВ - юго-восточный, Ю - южный, ЮЗ - юго-западный, З - западный, СЗ - северо-западный.
Видимость - горизонтальная дальность видимости в метрах или километрах. При видимости от 1 до 10 км при отсутствии осадков обычно наблюдается дымка, при ухудшении видимости до 1 км и менее - туман. В сухую погоду видимость может ухудшаться дымом, пылью или мглою.
Явления - указаны атмосферные явления, наблюдавшиеся в срок или в последний час перед сроком; фигурными скобками обозначены явления, наблюдавшиеся между сроками (за 1-3 часа до срока); квадратными скобками обозначены град или гололедные отложения с указанием их диаметра в мм.
Облачность - указаны через наклонную черту общая и нижняя облачность в баллах и высота нижней границы облаков в метрах; квадратными скобками обозначены формы облаков: Ci - перистые, Cs - перисто-слоистые, Cc - перисто-кучевые, Ac - высококучевые, As - высокослоистые, Sc - слоисто-кучевые, Ns - слоисто-дождевые, Cu - кучевые, Cb - кучево-дождевые. Подробнее классификацию облаков см. в Атласе облаков (PDF).
T - Температура воздуха - температура, измеренная на высоте 2 м над землей.
Td - Температура точки росы - температура, при понижении до которой содержащийся в воздухе водяной пар достигнет насыщения.
f - Относительная влажность воздуха - влажноcть воздуха, измеренная на высоте 2 м над землей.
Te - Эффективная температура - температура, которую ощущает одетый по сезону человек в тени. Характеристика душности погоды. При расчете учитывается влияние влажности воздуха и скорости ветра на теплоощущения человека.
Tes - Эффективная температура на солнце - температура, которую ощущает человек, с поправкой на солнечный нагрев. Характеристика знойности погоды. Зависит от высоты солнца над горизонтом, облачности и скорости ветра. Ночью, в пасмурную погоду, а также при ветре 12 м/с и более поправка равна нулю.
P - Атмосферное давление - приведенное к уровню моря атмосферное давление.
Po - Атмосферное давление - измеренное на уровне метеостанции атмосферное давление.
Tmin - Минимальная температура - минимум температуры воздуха на высоте 2 м над землей.
Tmax - Максимальная температура - максимум температуры воздуха на высоте 2 м над землей.
R - Количество осадков - Количество выпавших осадков за период времени, мм. При наведении курсора мыши на число - период времени, за который выпало указанное количество осадков.
R24 - Количество осадков - Количество выпавших осадков за 24 часа, мм.
S - Снежный покров - Высота снежного покрова, см. При наведении курсора мыши на число - состояние снежного покрова и степень покрытия местности в баллах.